A/2020 F7

Japanese version
Home page
Updated on May 24, 2020

---------------------------------------------------------------------

* Profile

Discovery Date March 22, 2020
Magnitude 20.2 mag
Discoverer Mt. Lemmon Survey

* Orbital Elements

Epoch 2021 Nov. 2.0 TT = JDT 2459520.5
T 2021 Nov. 14.01139 TT                                 Rudenko
q   5.3319333            (2000.0)            P               Q
z  +0.0014347      Peri.  227.97216     -0.49514263     +0.61293319
 +/-0.0000124      Node   321.88678     +0.71086499     -0.12165509
e   0.9923501      Incl.   93.95320     -0.49950450     -0.78071310
H   12.0
From 101 observations 2020 Jan. 4-May 19, mean residual 0".4.

* Magnitudes Graph

        H = 11.5  G = 0.15

---------------------------------------------------------------------

The orbital elements are published on M.P.E.C. 2020-K117.
The magnitudes graphs are made with Comet for Windows.

---------------------------------------------------------------------

Copyright(C) Seiichi Yoshida (comet@aerith.net). All rights reserved.